{"data":{"norad_id":52120,"intl_designator":"2022-029AJ","name":"STARLINK-3534","alt_names":[],"object_type":"PAYLOAD","status":"ACTIVE","operator":null,"country":"US","launch_date":"2022-03-19","launch_site_code":"AFETR","launch_vehicle":null,"mission":null,"orbit_class":"UNKNOWN","rcs_meters":null,"size_class":null,"mass_kg":null,"dimensions":null,"purposes":["comms"],"wikipedia_slug":null,"has_3d_model":false,"image_url":null,"decayed_at":null,"tle_current":{"epoch":"2026-05-25T02:30:03.580704Z","epoch_age_seconds":62223,"freshness":"FRESH","line1":"1 52120U 22029AJ  26145.10420811  .00000605  00000+0  56101-4 0  9997","line2":"2 52120  53.2134  96.0825 0001345  89.8933 270.2213 15.08839270232336","mean_motion":15.0883927,"eccentricity":0.0001345,"inclination_deg":53.2134,"raan_deg":96.0825,"arg_perigee_deg":89.8933,"mean_anomaly_deg":270.2213,"bstar":5.6101e-5,"rev_number":23233,"period_min":95.437600851945,"perigee_km":538.81516507053,"apogee_km":540.67607549539,"semimajor_km":6917.882620283,"source":"CELESTRAK","updated_at":"2026-05-25T13:38:17.075284Z"}}}